This demonstration page uses our WeatherBlox Daily Observations layout. Learn more.

Left ArrowRight Arrow

41.86663, -103.66717

Hourly Observations for January 20, 2016

Temp ( °F °C ) Dew Point ( °F °C ) Humidity (%) Winds ( mph kmh ) Pressure ( in mb ) Visibility ( mi km ) Precip ( " mm )
12:53 am 00:53 Clear 23 -5 18 -7.8 81 81 E 6 9 29.95 1014 10 16 N/A
1:53 am 01:53 Clear 23 -5 17 -8.3 78 78 E 6 9 29.93 1014 10 16 N/A
2:53 am 02:53 Clear 21 -6.1 16 -8.9 81 81 E 6 9 29.92 1013 10 16 N/A
3:53 am 03:53 Clear 21 -6.1 17 -8.3 85 85 E 5 7 29.91 1013 10 16 N/A
4:53 am 04:53 Mostly Cloudy 20 -6.7 16 -8.9 85 85 ESE 3 6 29.90 1013 10 16 N/A
5:53 am 05:53 Cloudy 23 -5 18 -7.8 81 81 ESE 6 9 29.90 1013 10 16 N/A
6:53 am 06:53 Mostly Cloudy 24 -4.4 20 -6.7 84 84 SE 3 6 29.91 1013 10 16 N/A
7:53 am 07:53 Partly Cloudy 24 -4.4 20 -6.7 84 84 ESE 6 9 29.90 1012 10 16 N/A
8:53 am 08:53 Partly Cloudy 26 -3.3 22 -5.6 84 84 E 6 9 29.88 1012 10 16 N/A
9:53 am 09:53 Cloudy 31 -0.6 26 -3.3 82 82 E 3 6 29.87 1011 10 16 N/A
10:53 am 10:53 Sunny 42 5.6 29 -1.7 60 60 WNW 10 17 29.85 1011 10 16 N/A
11:53 am 11:53 Sunny 43 6.1 27 -2.8 53 53 WNW 16 26 29.83 1010 10 16 N/A
12:53 pm 12:53 Sunny 44 6.7 28 -2.2 53 53 W 14 22 29.80 1009 10 16 N/A
1:53 pm 13:53 Mostly Sunny 45 7.2 30 -1.1 56 56 WNW 12 19 29.81 1009 10 16 N/A
2:53 pm 14:53 Sunny 44 6.7 27 -2.8 51 51 NW 22 35 29.84 1011 10 16 N/A
3:53 pm 15:53 Mostly Sunny 41 5 27 -2.8 57 57 NW 17 28 29.88 1012 10 16 N/A
4:53 pm 16:53 Sunny 38 3.3 26 -3.3 62 62 NNW 15 24 29.94 1014 10 16 N/A
5:53 pm 17:53 Clear 33 0.6 23 -5 66 66 N 8 13 30.00 1016 10 16 N/A
6:53 pm 18:53 Clear 33 0.6 22 -5.6 64 64 NW 12 19 30.03 1017 10 16 N/A
7:53 pm 19:53 Mostly Clear 32 undefined 22 -5.6 66 66 WNW 12 19 30.06 1018 10 16 N/A
8:53 pm 20:53 Cloudy 34 1.1 26 -3.3 73 73 NW 13 20 30.09 1019 10 16 N/A
9:53 pm 21:53 Cloudy 33 0.6 27 -2.8 78 78 NW 18 30 30.11 1020 10 16 N/A
10:53 pm 22:53 Cloudy 32 undefined 26 -3.3 79 79 NW 14 22 30.12 1020 10 16 N/A
11:53 pm 23:53 Mostly Cloudy 31 -0.6 26 -3.3 82 82 NW 13 20 30.14 1021 10 16 N/A

Powered by AerisWeather